Temp
-7 -7 -7 -7 -7 -7 -6 -7 -7 -6 -6 -6 -6 -7 -7 -7 -7 -7 -7 -7 -7 -7 -8 -8 -8 -7 -7 -7 -7 -6 -6 -6 -6
-7 -7 -7 -7 -7 -7 -7 -8 -7 -7 -6 -6 -7 -6 -7 -7 -7 -7 -7 -7 -7 -7 -8 -7 -8 -7 -7 -7 -7 -7 -7 -7 -6
-8 -8 -6 -8 -7 -8 -6 -7 -7 -8 -7 -6 -6 -7 -7 -7 -7 -7 -7 -8 -7 -7 -8 -8 -8 -8 -7 -7 -7 -7 -7 -7 -6
-7 -7 -7 -8 -8 -8 -7 -7 -7 -8 -7 -7 -7 -7 -7 -7 -7 -7 -7 -7 -8 -8 -7 -7 -8 -7 -7 -7 -7 -7 -7 -7 -6
-8 -7 -9 -9 -7 -8 -8 -8 -8 -8 -8 -7 -7 -7 -7 -7 -7 -7 -7 -7 -7 -7 -7 -7 -7 -7 -7 -7 -7 -7 -7 -7 -6
-8 -8 -6 -6 -9 -9 -7 -7 -8 -8 -8 -8 -7 -7 -7 -7 -7 -7 -7 -7 -7 -6 -7 -7 -7 -7 -7 -7 -7 -7 -7 -7 -7
-7 -8 -8 -8 -8 -8 -8 -7 -7 -7 -7 -7 -7 -7 -6 -6 -7 -7 -7 -7 -7 -7 -8 -8 -8 -8 -7 -7 -7 -7 -7 -7 -7
-7 -7 -8 -6 -7 -6 -7 -7 -7 -6 -6 -6 -6 -6 -6 -6 -6 -6 -6 -7 -7 -7 -7 -7 -8 -7 -8 -8 -7 -7 -7 -7 -7
-8 -7 -7 -7 -5 -5 -6 -7 -6 -6 -6 -5 -5 -5 -5 -6 -6 -6 -6 -6 -6 -7 -7 -7 -8 -7 -8 -7 -8 -8 -7 -7 -7
-9 -9 -8 -7 -7 -8 -7 -7 -6 -6 -6 -6 -6 -6 -6 -6 -6 -7 -7 -7 -6 -7 -7 -8 -8 -8 -8 -7 -7 -8 -7 -7 -7
-9 -8 -10 -9 -9 -9 -8 -8 -7 -7 -6 -6 -6 -6 -6 -7 -7 -7 -7 -7 -7 -7 -7 -7 -7 -8 -8 -7 -7 -8 -7 -7 -7
-9 -9 -9 -8 -9 -9 -8 -8 -7 -7 -7 -6 -7 -7 -7 -7 -7 -7 -7 -7 -7 -7 -7 -7 -6 -6 -7 -6 -7 -6 -7 -7 -7
-9 -9 -8 -8 -9 -9 -8 -8 -8 -7 -7 -7 -7 -7 -7 -7 -7 -7 -7 -7 -6 -6 -6 -6 -6 -6 -6 -6 -7 -7 -8 -8 -7
-8 -8 -8 -8 -9 -9 -9 -8 -7 -7 -7 -7 -7 -7 -7 -7 -7 -8 -8 -7 -7 -7 -6 -6 -6 -6 -6 -6 -6 -7 -7 -7 -6
-8 -8 -7 -7 -8 -8 -8 -8 -7 -7 -7 -7 -7 -7 -7 -7 -7 -7 -7 -7 -7 -7 -7 -7 -6 -6 -6 -6 -6 -6 -6 -6 -7
-9 -8 -8 -8 -8 -8 -8 -8 -7 -7 -7 -7 -7 -7 -6 -6 -6 -6 -7 -7 -7 -7 -6 -6 -6 -5 -6 -6 -5 -5 -5 -6 -6
-9 -9 -8 -8 -8 -8 -8 -8 -7 -7 -7 -7 -7 -7 -7 -6 -7 -7 -7 -7 -7 -7 -6 -6 -5 -5 -5 -5 -5 -5 -5 -5 -6
-9 -9 -8 -8 -8 -8 -8 -8 -7 -7 -7 -7 -7 -7 -7 -7 -7 -8 -8 -8 -7 -7 -7 -7 -7 -6 -6 -5 -5 -5 -6 -6 -6
-9 -9 -8 -8 -8 -8 -8 -7 -7 -7 -7 -7 -7 -8 -8 -8 -8 -8 -8 -8 -8 -7 -7 -7 -6 -6 -6 -6 -6 -6 -7 -7 -7
-9 -8 -8 -8 -8 -8 -8 -8 -8 -8 -8 -8 -9 -9 -9 -9 -9 -9 -9 -9 -9 -8 -8 -8 -7 -6 -6 -6 -6 -7 -8 -8 -8
Height
5866 5869 5872 5873 5876 5876 5880 5882 5884 5882 5887 5888 5890 5892 5894 5895 5896 5898 5901 5905 5906 5907 5910 5913 5917 5920 5922 5925 5926 5928 5930 5932 5933
5868 5867 5870 5873 5875 5878 5880 5880 5881 5879 5884 5886 5886 5889 5891 5892 5893 5894 5896 5900 5902 5903 5905 5907 5910 5914 5918 5920 5922 5923 5925 5928 5931
5860 5863 5867 5874 5872 5874 5877 5878 5878 5878 5882 5883 5884 5886 5887 5889 5890 5891 5893 5895 5897 5900 5902 5904 5907 5909 5913 5915 5918 5918 5920 5923 5924
5859 5864 5866 5869 5871 5866 5872 5874 5875 5878 5878 5881 5882 5884 5885 5886 5887 5888 5890 5892 5893 5895 5898 5900 5902 5904 5906 5909 5912 5913 5916 5919 5921
5855 5859 5865 5854 5859 5860 5868 5870 5870 5874 5877 5880 5881 5882 5883 5883 5884 5885 5886 5888 5890 5892 5892 5894 5896 5898 5901 5903 5904 5906 5909 5912 5915
5851 5852 5844 5849 5855 5863 5864 5867 5868 5873 5877 5877 5878 5880 5881 5881 5882 5882 5883 5883 5884 5886 5888 5889 5890 5892 5893 5896 5898 5901 5902 5904 5907
5851 5850 5846 5844 5853 5861 5862 5862 5865 5870 5873 5874 5874 5875 5876 5877 5878 5879 5880 5879 5875 5877 5882 5885 5886 5886 5887 5888 5889 5892 5895 5897 5898
5847 5852 5847 5849 5851 5853 5856 5858 5861 5864 5867 5869 5870 5871 5872 5872 5873 5874 5874 5875 5871 5871 5874 5876 5877 5877 5881 5883 5884 5885 5886 5887 5890
5833 5835 5840 5844 5844 5847 5850 5852 5856 5858 5860 5861 5863 5865 5865 5867 5867 5867 5867 5868 5867 5865 5864 5861 5870 5870 5874 5876 5878 5879 5879 5880 5881
5822 5829 5832 5839 5841 5843 5846 5849 5851 5853 5855 5855 5856 5858 5858 5859 5859 5859 5860 5860 5859 5857 5859 5859 5861 5862 5865 5867 5864 5866 5869 5872 5874
5821 5816 5824 5834 5833 5838 5841 5843 5845 5848 5849 5850 5851 5850 5850 5850 5850 5850 5850 5850 5851 5850 5849 5849 5850 5854 5856 5857 5855 5855 5859 5862 5864
5823 5822 5824 5826 5819 5831 5834 5838 5841 5841 5842 5846 5846 5844 5843 5841 5841 5842 5841 5841 5841 5841 5841 5841 5842 5844 5846 5847 5848 5846 5848 5849 5853
5819 5820 5822 5822 5822 5827 5829 5831 5834 5836 5838 5838 5839 5837 5833 5834 5834 5833 5832 5831 5830 5831 5831 5831 5831 5833 5834 5836 5839 5838 5837 5839 5842
5815 5813 5819 5822 5825 5825 5824 5826 5827 5831 5832 5832 5832 5828 5827 5826 5825 5824 5823 5822 5821 5821 5821 5821 5821 5822 5823 5826 5827 5829 5830 5829 5831
5805 5808 5812 5813 5815 5820 5821 5820 5821 5824 5824 5824 5822 5820 5819 5818 5816 5815 5814 5813 5813 5812 5810 5809 5809 5809 5810 5811 5813 5815 5818 5819 5820
5801 5802 5805 5809 5810 5812 5812 5815 5817 5817 5817 5815 5813 5813 5812 5810 5808 5806 5806 5804 5803 5801 5799 5798 5797 5797 5798 5799 5799 5801 5803 5804 5805
5799 5802 5803 5804 5806 5807 5808 5810 5809 5810 5808 5807 5806 5805 5804 5802 5800 5799 5797 5796 5794 5791 5788 5787 5786 5786 5787 5787 5787 5787 5788 5790 5792
5793 5792 5795 5798 5799 5801 5802 5801 5800 5800 5800 5800 5800 5798 5797 5795 5794 5792 5790 5789 5786 5784 5781 5778 5775 5773 5774 5773 5772 5771 5774 5775 5777
5787 5789 5790 5791 5792 5793 5793 5793 5793 5794 5794 5793 5793 5792 5791 5789 5789 5787 5784 5781 5778 5775 5771 5768 5766 5762 5760 5758 5757 5757 5757 5759 5763
5781 5783 5784 5784 5785 5787 5787 5788 5787 5787 5787 5787 5787 5786 5785 5785 5783 5780 5777 5774 5770 5767 5764 5758 5755 5752 5748 5744 5744 5743 5744 5746 5749
Wind_Speed
14 14 9 11 3 5 6 11 16 9 7 7 6 7 6 7 8 8 10 9 12 14 19 20 22 20 19 21 20 19 16 14 12
14 18 6 13 9 9 9 10 11 8 7 8 8 9 9 8 8 8 8 8 11 11 15 15 20 24 23 22 23 22 20 17 16
17 17 20 21 14 12 10 9 9 7 9 8 7 10 11 11 10 11 10 10 11 13 15 18 19 22 26 25 25 26 24 22 21
17 22 34 29 19 12 8 9 7 8 5 6 10 11 13 12 12 13 13 12 12 13 15 18 21 23 25 28 27 26 25 25 25
24 12 19 23 18 8 10 8 7 6 8 7 8 10 12 12 12 13 15 17 16 15 15 16 18 21 22 28 31 28 27 28 27
20 18 24 23 18 14 14 13 8 8 10 10 9 9 10 11 12 13 17 18 18 20 20 19 19 20 22 25 29 31 31 33 31
24 22 17 14 20 18 16 15 12 12 13 13 14 13 14 14 15 15 14 16 25 18 23 22 23 24 24 25 27 29 33 34 34
28 16 27 17 22 16 17 16 13 12 12 12 12 14 15 15 16 18 20 21 23 20 23 29 28 32 31 28 28 29 31 34 35
22 30 30 29 27 22 20 18 15 13 14 14 15 17 19 19 20 21 22 25 28 29 32 31 26 28 28 29 30 30 31 33 33
35 36 7 15 27 22 20 18 16 15 15 17 18 20 22 23 23 25 24 26 30 34 33 34 30 27 30 34 38 37 35 34 33
25 21 10 20 23 19 19 18 18 17 17 19 22 23 25 25 24 24 25 26 27 32 35 36 37 36 33 30 35 34 35 38 37
31 26 24 23 17 18 16 17 18 17 19 22 25 26 26 27 26 25 26 26 27 29 32 35 37 38 39 36 33 37 47 42 38
31 41 26 18 21 14 14 19 18 20 22 25 27 27 28 26 26 26 27 29 30 30 30 32 35 35 34 37 34 32 30 34 39
30 27 22 21 28 15 17 21 25 23 24 26 28 27 26 28 29 29 30 30 31 33 34 34 35 35 33 34 38 37 38 39 40
23 23 20 20 18 18 22 26 27 26 28 27 26 26 27 30 30 30 30 29 32 33 34 34 36 38 39 39 37 38 41 44 43
26 26 23 23 24 24 27 28 29 30 28 27 27 26 27 28 27 27 30 33 33 32 33 32 33 35 35 37 41 43 42 41 45
26 27 27 28 27 28 29 30 31 28 26 25 27 27 29 29 28 28 29 30 30 32 34 34 36 36 36 38 40 41 44 47 45
22 24 23 24 26 27 26 26 26 24 24 25 25 25 25 25 25 26 26 27 29 31 33 33 34 34 35 36 37 39 45 45 47
24 23 22 22 22 22 23 23 23 24 26 26 24 20 20 21 21 23 26 29 32 33 34 33 31 34 36 31 32 33 37 44 45
24 29 27 24 24 23 23 22 23 23 22 20 18 20 19 19 20 23 24 27 31 33 29 31 30 25 26 28 28 28 32 36 34
Wind_Direction
296 337 265 296 274 245 169 220 231 215 234 212 199 180 180 199 203 217 213 210 223 214 222 228 220 224 224 218 215 220 221 229 239
255 300 292 229 233 218 199 224 217 234 239 238 217 210 202 203 211 213 226 216 219 224 219 228 219 224 227 223 224 224 227 234 248
280 253 292 248 218 218 209 207 205 213 232 233 232 240 223 216 223 230 222 223 226 221 224 224 222 228 227 229 227 231 234 239 242
274 270 291 226 207 191 203 209 177 203 225 227 239 241 234 243 243 247 243 231 228 231 224 225 226 226 229 230 235 238 242 249 250
276 249 276 241 203 189 234 221 214 202 240 231 232 245 249 250 257 256 255 255 249 241 236 237 232 238 234 231 231 234 243 248 250
268 285 280 177 221 227 230 233 227 229 227 245 252 244 244 249 253 257 260 258 261 256 248 240 242 235 236 233 236 241 243 246 248
267 294 265 160 211 223 223 232 238 241 240 239 243 253 261 257 256 256 258 261 250 250 257 260 255 247 243 239 238 240 244 247 250
255 261 222 251 240 232 243 247 249 244 243 241 249 264 270 272 272 258 251 252 266 261 258 247 252 252 249 248 245 243 241 243 246
280 272 246 229 243 231 242 255 249 248 257 268 278 283 289 286 284 277 267 259 254 257 253 262 253 251 247 250 255 254 248 245 243
257 259 197 239 231 238 249 247 249 256 268 279 286 291 291 291 286 280 273 265 260 261 260 262 265 263 260 251 244 246 245 248 247
263 274 293 242 213 221 231 239 245 257 271 282 289 292 292 290 283 277 275 273 265 262 264 263 263 260 260 262 276 272 246 248 250
258 268 282 245 190 216 225 245 256 271 276 283 285 288 287 283 284 281 276 273 270 267 264 265 264 261 260 259 262 272 244 242 244
251 276 288 301 245 246 253 262 262 268 278 281 285 287 283 286 286 283 278 274 271 270 268 267 268 268 265 262 259 264 242 247 247
260 268 263 228 240 247 258 264 266 273 278 280 284 279 282 286 285 282 281 278 277 276 273 270 267 267 267 262 259 254 251 251 252
268 258 250 242 251 258 259 262 270 277 280 284 281 279 282 288 283 280 278 278 283 285 280 276 272 268 265 262 257 255 255 255 258
261 260 258 257 258 259 262 265 270 275 280 279 284 280 283 292 293 285 284 285 288 289 286 282 279 276 270 267 265 259 255 253 253
252 248 249 255 256 256 260 264 267 273 277 280 284 286 279 286 287 288 290 291 290 288 286 284 283 281 279 275 269 262 259 255 253
257 263 260 253 254 257 261 267 273 275 277 281 282 279 279 285 289 291 292 293 294 293 293 295 293 292 296 285 278 268 257 254 253
260 259 261 263 261 265 266 270 274 274 278 279 282 280 286 289 292 293 297 301 301 303 302 304 297 289 288 287 280 271 262 251 252
262 257 258 267 267 266 264 270 275 277 277 273 273 281 286 294 300 303 308 310 309 308 310 306 296 298 295 286 277 267 258 248 247